Flag for U.S.A. Weather past 2 weeks in Cape Coral, Florida, U.S.A.

Now
76 °F

Clear.


Feels Like: 75 °F
Forecast: 76 / 90 °F
Wind: No wind

Location: Page Field

Current Time: Sep 5, 2015 at 4:54:27 AM

Latest Report: Sep 5, 2015 at 3:53 AM


Visibility: 10 mi

Pressure: 29.95 "Hg

Humidity: 94%

Dew point: 74 °F

Location of Cape CoralLocation

Historic Weather in Cape Coral — Graph

°F

Cape Coral temperature yesterday

Maximum temperature yesterday: 91 °F (at 11:53 AM)
Minimum temperature yesterday: 77 °F (at 10:53 PM)
Average temperature yesterday: 83 °F

Past Weeks' High & Low Weather Summary

 TemperatureHumidityPressure
High95 °F (Aug 23, 4:53 PM)100% (Aug 26, 10:53 PM)30.10 "Hg (Aug 26, 10:53 PM)
Low73 °F (Aug 26, 9:53 PM)44% (Aug 24, 1:53 PM)29.85 "Hg (Aug 24, 6:53 PM)
Average82 °F80%29.98 "Hg
* Reported Aug 21 2:53 AM — Sep 5 2:53 AM, Cape Coral, Weather by CustomWeather, © 2015

Note: Actual official high and low records may vary slightly from our data, if they occured in-between our weather recording intervals... More about our weather records

Advertising

Cape Coral weather history for previous 24 hours

 ConditionsComfort  
Time TempWeatherWind HumidityBarometerVisibility
2:53 AM
Sat, Sep 5
76 °FClear.No wind94%29.95 "Hg10 mi
1:53 AM76 °FClear.3 mph97%29.96 "Hg10 mi
12:53 AM76 °FClear.5 mph94%29.98 "Hg10 mi
11:53 PM
Fri, Sep 4
77 °FClear.10 mph90%29.98 "Hg10 mi
10:53 PM77 °FClear.3 mph90%29.97 "Hg10 mi
9:53 PM78 °FClear.No wind84%29.96 "Hg10 mi
9:01 PM78 °FThundershowers. Passing clouds.5 mph84%29.96 "Hg10 mi
7:53 PM86 °FScattered clouds.7 mph72%29.96 "Hg10 mi
6:53 PM87 °FPassing clouds.10 mph61%29.95 "Hg10 mi
5:53 PM90 °FSunny.13 mph56%29.94 "Hg10 mi
4:53 PM90 °FSunny.6 mph56%29.92 "Hg10 mi
3:53 PM87 °FSunny.8 mph63%29.95 "Hg10 mi
2:53 PM80 °FThundershowers. Scattered clouds.8 mph81%29.97 "Hg10 mi
1:53 PM90 °FThunderstorms. Broken clouds.6 mph57%29.98 "Hg10 mi
12:53 PM90 °FPartly sunny.6 mph57%29.99 "Hg10 mi
11:53 AM91 °FScattered clouds.7 mph57%30.00 "Hg10 mi
10:53 AM87 °FPassing clouds.5 mph65%30.00 "Hg10 mi
9:53 AM87 °FSunny.5 mph67%29.99 "Hg10 mi
8:53 AM85 °FSunny.8 mph77%29.98 "Hg10 mi
7:53 AM80 °FClear.No wind90%29.97 "Hg10 mi
6:53 AM79 °FClear.No wind90%29.95 "Hg10 mi
5:53 AM80 °FClear.5 mph87%29.94 "Hg10 mi
4:53 AM80 °FClear.No wind85%29.94 "Hg10 mi
Weather by CustomWeather, © 2015

See weather overviewHow to use our weather pages